Regional Weather Roundup
Issued by NWS

Home | Current Version | Previous Version | Text Only | Print | Product List | Glossary Off
Versions: 1 2 3 4 5 6 7 8 9 10 11 12 13 14 15 16 17 18 19 20 21 22 23 24 25 26 27 28 29 30 31 32 33 34 35 36 37 38 39 40 41 42 43 44 45 46 47 48 49 50

000
ASUS43 KLOT 271406
RWRIL

ILLINOIS REGIONAL WEATHER ROUNDUP
NATIONAL WEATHER SERVICE CHICAGO/ROMEOVILLE IL
900 AM CDT WED AUG 27 2014

NOTE: "FAIR" INDICATES FEW OR NO CLOUDS BELOW 12,000 FEET WITH NO
SIGNIFICANT WEATHER AND/OR OBSTRUCTIONS TO VISIBILITY.

* THESE STATIONS ARE NOT UNDER NWS QUALITY CONTROL. THEY ALSO MAY NOT
  REPORT WEATHER SUCH AS PRECIPITATION OR FOG.

ILZ001-002-007-009-015-016-024-271500-
NORTHWEST ILLINOIS

CITY           SKY/WX    TMP DP  RH WIND       PRES   REMARKS
MOLINE         PTSUNNY   72  61  68 E10       30.14S
STERLING*      PTSUNNY   70  61  73 E8        30.16S
SAVANNA*       MOSUNNY   71  58  64 E6        30.16S
$$

ILZ003-004-008-010-011-017-018-271500-
NORTH CENTRAL ILLINOIS

CITY           SKY/WX    TMP DP  RH WIND       PRES   REMARKS
ROCKFORD       MOSUNNY   72  58  61 E8        30.16S
FREEPORT*      MOSUNNY   68  62  80 NE3       30.19R
ROCHELLE*      MOSUNNY   68  61  76 NE6       30.15F
DE KALB*       MOSUNNY   67  61  80 NE6       30.16F
PERU*          MOSUNNY   72  64  76 E7        30.14F
$$

ILZ005-006-012>014-019>023-271500-
NORTHEAST ILLINOIS

CITY           SKY/WX    TMP DP  RH WIND       PRES   REMARKS
CHICAGO-OHARE  MOSUNNY   74  60  61 NE5       30.14S
CHICAGO-MIDWAY MOSUNNY   75  63  66 E10       30.14S
AURORA         PTSUNNY   72  63  73 NE7       30.15S
LANSING*       SUNNY     73  62  69 E9        30.14F
JOLIET*        SUNNY     72  64  75 E7        30.14F
WAUKEGAN       SUNNY     69  61  75 VRB3      30.14S
DUPAGE AIRPORT SUNNY     72  63  73 E8        30.14S
KANKAKEE*      SUNNY     73  64  73 NE8       30.14S
WHEELING       MOSUNNY   73  64  73 VRB5      30.16S
MORRIS*        SUNNY     73  67  81 E5        30.13F
ROMEOVILLE*    SUNNY     72  64  76 E8        30.14S
NORTHERLY ISL    N/A     72  63  73 NE8         N/A
$$

LMZ740>746-271500-
SOUTHERN LAKE MICHIGAN

STATION/POSITION SKY/WX   TEMP    WIND        PRES    VSBY  WAVE
                          AIR SEA DIR/SP/G                  HT/PER
                          (F)     (DEG/KT/KT) (MB)    (MI)  (FT/S)
SOUTHERN BUOY              68 69   90/  4/  6 1021.0R         0
WAUKEGAN HARBOR            69      20/  8/  8   N/A
HARRISON CRIB              70      50/  6/  8   N/A
BURNHAM HARBOR             72      50/  6/  9   N/A
CALUMET HARBOR             72      30/  6/  9 1019.3S
MICHIGAN CITY              69      20/  8/ 10   N/A
MICHIGAN CITY 6N           71 73   60/  8/ 10   N/A           1/ 3
ST. JOSEPH                 69 74   70/  6/  8   N/A           1
$$

ILZ025>027-034>036-040-047-049-050-058-095>099-271500-
WEST-CENTRAL ILLINOIS

CITY           SKY/WX    TMP DP  RH WIND       PRES   REMARKS
QUINCY         MOSUNNY   76  70  82 E8        30.11S
GALESBURG*     MOSUNNY   74  68  79 E6        30.14S
MACOMB*        MOSUNNY   72  68  86 E6        30.15R
JACKSONVILLE*  SUNNY     78  72  82 E3        30.13R HX  80
PITTSFIELD*    MOSUNNY   78  72  81 E6        30.13S HX  80
$$

ILZ028>032-037-038-041>044-048-051>054-059>061-271500-
CENTRAL ILLINOIS

CITY           SKY/WX    TMP DP  RH WIND       PRES   REMARKS
PONTIAC        SUNNY     77  66  69 E5        30.14R
DECATUR        SUNNY     78  70  76 NE3       30.12R HX  80
PEORIA         MOSUNNY   76  67  73 E8        30.13R
LACON*         SUNNY     74  66  76 E5        30.13S
LINCOLN*       CLOUDY    73  70  91 CALM      30.10S FOG
SPRINGFIELD    SUNNY     78  69  73 CALM      30.12R HX  80
TAYLORVILLE    SUNNY     75  70  83 CALM      30.12S
$$

ILZ033-039-045-046-055>057-062-063-271500-
EAST-CENTRAL ILLINOIS

CITY           SKY/WX    TMP DP  RH WIND       PRES   REMARKS
CHAMPAIGN      MOSUNNY   75  71  87 NE6       30.12S
DANVILLE*      RAIN      73  71  92 NE7       30.10S
RANTOUL*       CLOUDY    75  71  85 NE7       30.14R
MATTOON        MOSUNNY   78  68  71 CALM      30.11R HX  80
PARIS*         SUNNY     77  70  80 N5        30.12S
$$

ILZ079-100>102-271500-
SOUTHWEST ILLINOIS

CITY           SKY/WX    TMP DP  RH WIND       PRES   REMARKS
BELLEVILLE     SUNNY     79  74  84 VRB2      30.11R HX  82
SPARTA*        SUNNY     78  75  90 CALM      30.12R HX  81
$$

ILZ064>066-069>071-074>076-080>082-084>086-088>090-092>094-271500-
SOUTH-CENTRAL ILLINOIS

CITY           SKY/WX    TMP DP  RH WIND       PRES   REMARKS
CARBONDALE     SUNNY     81  75  82 N3        30.11R HAZE    HX  87
CAIRO*           N/A    N/A N/A N/A MISG        N/A
EFFINGHAM*     MOSUNNY   78  65  64 CALM      30.12S HX  80
MARION         SUNNY     81  77  89 E3        30.11R HX  88
MT. VERNON     SUNNY     79  72  78 NE3       30.12R HX  82
SALEM*         SUNNY     81  73  77 CALM      30.11F HX  85
METROPOLIS*    SUNNY     81  74  78 CALM      30.09S HX  86
$$

ILZ067-068-072-073-078-083-087-091-271500-
SOUTHEAST ILLINOIS

CITY           SKY/WX    TMP DP  RH WIND       PRES   REMARKS
LAWRENCEVILLE  SUNNY     80  73  79 CALM      30.10S HX  84
FLORA*         SUNNY     77  72  85 CALM      30.11S
FAIRFIELD*     SUNNY     81  77  89 CALM      30.10S HX  88
HARRISBURG*    SUNNY     80  77  91 CALM      30.11S FOG     HX  85
ROBINSON*      SUNNY     79  73  82 CALM      30.11S HX  82
CARMI*         SUNNY     81  79  94 CALM      30.10S FOG     HX  89
$$

ABBREVIATIONS USED IN REMARKS
   TC - TEMPERATURE IN CELSIUS
  WCI - WIND CHILL INDEX
   HX - HEAT INDEX
  VSB - VISIBILITY
$$



USA.gov is the U.S. government's official web portal to all federal, state and local government web resources and services.